Location: Les Martinières
(47.2667°N, 1.4410°E)
Time: 23:26:11
(UTC+00:00)

Cosmos 1271 Rocket - Pass Details

Date: 15 May 2026
Orbit: 421 x 448 km, 81.2° (Epoch: 6 June)

Event Time Altitude Azimuth Distance (km) Brightness Sun altitude
Exits shadow 23:38:48 24° 291° (WNW) 964 4.3 -23.6°
Drops below altitude 10° 23:41:32 10° 345° (NNW) 1,555 6.2 -23.6°
Sets 23:43:51 0° 0° (N) 2,423 7.6 -23.7°
